Dewpoint
53 53 52 51 52 51 51 51 51 50 49 48 48 48 47 47 46 47 47 46 46 46 47 48 47 46 45 40 38 45 45 45 46 45 44 44 40 38 33 40 41 43 41 45 45 47 43
53 53 53 53 52 52 52 51 51 50 49 49 48 47 48 47 47 47 45 45 46 47 47 46 46 46 43 35 42 45 45 44 44 44 42 44 39 40 36 37 41 44 43 43 45 46 45
53 53 53 53 52 52 51 51 51 50 49 49 48 47 47 47 47 46 44 45 46 47 48 47 46 45 42 33 40 42 42 43 44 44 42 44 42 40 41 36 43 44 41 42 43 45 44
53 53 53 52 52 52 52 51 51 50 49 48 47 46 45 46 46 44 45 45 46 48 47 46 45 43 38 41 39 39 43 43 45 44 45 44 43 42 41 42 43 42 41 37 40 45 45
53 53 53 52 52 52 52 51 51 50 49 48 47 44 45 45 44 44 44 45 46 45 45 43 38 35 33 41 35 38 40 41 42 46 46 43 42 40 39 35 37 37 35 36 39 45 45
52 52 52 52 52 52 52 52 51 50 49 47 46 44 44 44 43 44 45 45 42 41 38 35 35 32 33 32 37 38 41 44 42 43 40 40 37 34 36 34 30 32 35 35 38 43 44
52 52 52 52 52 52 52 51 51 50 49 46 43 44 43 43 42 45 45 41 32 31 36 31 32 34 33 37 40 39 41 42 40 40 33 37 28 26 33 34 36 37 36 35 38 42 41
51 51 51 51 51 51 52 51 51 50 50 47 42 43 43 41 41 44 39 34 35 33 31 36 35 35 36 38 36 36 43 37 37 32 37 33 23 34 37 38 35 36 35 36 37 40 40
50 50 50 50 50 51 51 51 51 51 49 49 42 43 43 43 40 38 37 37 40 40 31 34 37 36 36 38 35 37 41 38 34 34 35 26 32 36 35 36 35 35 33 36 36 38 40
50 50 50 50 50 50 50 50 51 50 49 47 44 42 42 43 37 36 35 39 40 39 24 25 31 33 37 38 32 39 43 37 35 34 32 31 37 37 37 35 34 32 35 35 37 36 33
50 50 49 49 49 49 49 50 50 50 49 46 44 37 41 43 36 35 37 39 39 31 8 24 30 37 36 35 36 38 43 40 37 36 33 29 35 36 35 34 33 35 37 36 36 35 35
50 50 49 49 49 48 48 49 49 50 49 46 44 37 36 36 36 37 38 37 35 20 0 23 30 27 28 33 36 38 39 40 39 36 36 34 37 37 37 35 38 39 39 38 38 36 30
49 49 49 49 49 48 48 48 48 49 49 44 45 35 32 32 33 37 39 35 26 14 25 21 23 25 26 25 32 34 33 32 28 22 22 33 35 38 38 34 39 37 35 29 28 29 26
49 49 49 49 49 49 48 48 48 48 50 43 45 39 33 28 35 38 35 31 11 22 25 25 24 25 25 28 29 33 29 27 30 29 25 23 29 36 36 33 35 34 32 26 20 24 25
48 49 49 49 49 49 49 48 48 49 50 42 44 35 32 32 38 36 35 24 22 24 26 21 25 25 26 28 28 29 28 26 31 30 25 27 28 32 32 30 35 32 30 29 26 24 23
49 48 49 49 49 49 49 49 48 48 49 41 40 34 29 34 37 36 31 27 22 21 20 22 25 23 21 21 25 24 26 29 28 32 32 31 26 29 30 27 28 31 31 22 23 18 18
49 49 49 49 49 49 49 49 48 47 48 37 30 28 31 35 37 32 28 24 19 19 20 23 23 23 22 20 24 24 24 29 30 29 32 32 28 25 24 24 30 23 24 23 23 24 20
50 50 49 48 49 49 49 49 48 47 47 38 35 28 34 35 30 30 26 20 20 18 20 20 20 24 24 24 22 23 24 29 29 31 30 33 30 24 24 25 25 23 22 24 21 17 21
50 50 49 50 50 49 49 48 48 47 45 41 33 33 36 35 27 25 19 18 20 19 18 18 19 21 22 21 22 27 29 27 30 32 30 31 28 22 22 25 25 23 22 21 21 21 18
51 51 51 50 50 50 50 49 48 47 45 39 35 29 29 27 29 25 18 17 16 21 20 19 19 18 18 19 22 23 25 27 26 29 32 33 30 26 21 22 25 22 21 20 20 19 19
51 51 51 50 50 49 50 49 48 47 45 39 32 27 27 25 26 25 27 25 22 20 20 20 18 18 19 20 22 22 24 25 27 28 31 31 27 31 31 28 27 24 23 21 19 19 19
52 51 51 51 50 50 50 50 48 47 43 30 29 29 27 23 24 25 21 20 23 26 21 22 21 26 24 21 23 23 23 24 24 24 27 28 25 29 27 29 29 27 26 25 23 21 19
53 52 52 51 51 51 50 50 49 45 37 30 28 24 30 26 23 22 23 23 22 24 23 24 24 25 23 23 24 23 21 21 22 22 25 24 26 23 21 29 27 26 28 27 26 23 21
53 53 52 52 52 51 51 50 50 46 35 31 31 29 26 19 26 23 28 26 21 21 18 19 26 26 24 22 23 22 21 20 20 21 23 27 27 25 22 22 19 23 26 27 26 25 23
54 53 53 53 52 52 51 51 50 49 43 33 32 27 28 18 25 26 27 23 20 21 22 20 20 23 22 28 26 24 24 23 22 23 22 25 27 26 21 23 22 25 25 26 25 24 26
54 54 53 53 52 52 51 51 51 50 48 33 32 32 32 24 23 27 24 23 20 15 16 20 20 19 21 26 22 15 14 19 17 20 24 24 27 23 23 23 14 23 25 26 25 22 21
48 49 50 52 53 52 52 51 51 51 50 38 35 33 31 25 27 26 21 23 23 20 19 19 20 19 21 16 19 15 13 18 13 13 17 21 19 18 21 21 17 24 25 27 18 22 21
43 43 44 47 47 48 51 52 52 51 50 42 37 35 32 28 28 27 27 22 22 23 20 19 18 17 16 15 14 14 16 15 11 12 17 16 16 15 18 15 12 24 26 23 25 22 21
41 41 41 42 42 44 46 47 51 51 51 47 38 35 37 33 27 30 27 26 26 26 25 20 21 19 20 18 18 21 19 12 12 9 15 13 18 16 19 17 21 24 26 27 25 23 21
Lifted_Index
11 11 12 12 12 12 13 13 13 13 13 13 14 15 15 15 15 15 14 14 13 11 6 3 1 1 1 1 1 1 1 1 1 1 0 -0 0 2 2 1 -0 -0 -0 -1 -1 -1 -1
11 11 12 12 12 12 12 13 13 13 13 13 14 14 15 15 15 15 14 13 13 10 6 2 1 1 1 1 2 1 1 1 1 1 0 -0 0 1 2 2 1 -0 -0 -1 -1 -1 -1
11 11 11 12 12 12 12 12 13 13 13 13 14 14 15 15 15 15 14 13 12 9 5 2 1 1 1 2 2 2 2 2 1 1 1 0 -0 0 1 2 1 1 -0 -0 -0 -1 -1
11 11 11 12 12 12 12 12 12 13 13 13 14 14 15 15 15 14 14 13 11 9 5 3 2 2 3 3 3 3 3 2 2 1 1 0 -0 0 1 1 1 1 -0 -1 -0 -0 -1
11 11 11 12 12 12 12 12 12 13 13 14 14 15 15 15 14 14 13 12 11 10 7 5 4 4 4 4 4 4 3 2 2 1 1 1 1 1 1 1 1 1 -0 -0 -0 -0 -0
12 12 12 12 12 12 12 12 12 13 13 14 15 15 15 15 14 13 12 11 11 10 8 6 6 6 6 6 5 4 4 2 2 1 1 1 2 2 2 1 1 1 0 -0 0 0 0
12 12 12 12 12 12 12 12 12 12 13 14 15 15 15 15 14 13 11 11 11 10 8 7 6 6 6 6 5 5 3 2 2 2 2 2 3 3 2 1 1 1 1 0 0 0 1
12 12 12 12 12 12 12 12 12 12 12 14 15 15 15 15 14 13 12 11 11 10 8 6 6 6 6 5 5 4 3 2 2 2 2 2 3 2 1 1 1 1 1 1 1 1 1
12 13 13 13 13 12 12 12 12 12 12 13 15 15 14 14 14 13 12 12 12 10 8 6 6 5 5 5 4 3 2 2 1 1 2 2 2 2 1 0 1 1 1 1 1 1 1
12 12 13 13 13 13 12 12 12 11 12 13 14 15 14 14 13 13 12 12 12 10 7 6 6 5 5 4 3 2 2 1 1 1 2 2 2 1 1 1 1 1 2 2 1 1 1
12 12 12 12 12 13 13 12 11 11 12 13 14 15 15 14 13 12 12 13 12 8 5 5 6 6 5 4 3 2 2 1 1 1 2 2 1 1 1 1 1 2 2 2 2 1 1
12 12 12 12 13 13 13 12 12 12 12 13 14 15 15 14 13 13 13 12 9 5 4 5 6 6 5 4 3 2 2 2 1 1 1 1 1 1 1 1 1 2 2 2 1 1 1
12 12 12 12 13 13 13 13 13 12 13 14 14 15 16 15 14 14 12 9 5 3 4 5 6 6 5 4 3 2 2 2 2 2 2 2 1 1 2 2 2 1 1 1 1 1 1
13 13 13 13 13 13 14 14 14 13 13 14 15 16 16 16 15 14 11 7 3 2 4 6 6 6 5 5 4 3 2 3 3 3 3 2 2 2 2 2 2 2 1 1 1 0 1
14 13 13 13 13 13 14 14 14 14 14 15 15 15 16 16 15 13 9 6 4 3 4 5 6 5 5 5 5 4 3 3 4 4 4 4 4 3 3 3 2 2 2 2 1 1 0
14 13 13 13 13 13 14 14 14 14 14 15 14 14 15 16 15 12 8 6 5 5 5 5 5 5 5 5 5 4 4 4 4 4 4 4 4 4 4 4 3 3 3 3 2 1 0
13 13 13 13 13 13 13 13 14 14 14 14 13 12 14 15 14 10 7 6 7 7 6 5 5 5 5 5 5 5 5 4 4 4 4 4 5 5 4 4 4 4 3 3 3 2 1
13 13 13 13 13 13 13 13 13 14 14 14 12 12 14 14 12 9 7 7 8 7 7 6 6 5 5 5 5 5 5 5 5 4 4 4 4 4 4 4 4 4 3 3 3 3 3
12 12 12 12 12 12 12 13 13 14 14 14 12 11 13 13 11 9 8 8 8 8 7 7 7 7 6 5 5 5 5 5 5 5 4 4 4 3 3 3 3 3 3 3 3 3 3
11 12 12 12 12 12 12 12 13 13 14 14 12 11 11 11 10 10 9 9 9 9 8 8 9 9 8 6 5 5 5 5 5 5 5 4 4 3 3 3 3 2 2 2 2 2 2
10 11 11 11 11 12 12 12 12 13 14 13 12 10 10 10 10 10 10 9 9 9 9 9 9 9 9 8 8 7 6 5 5 5 4 4 3 3 3 3 3 2 2 2 2 2 2
9 10 10 11 11 11 11 12 12 14 14 13 11 11 10 10 10 10 9 9 9 9 10 9 9 9 9 10 10 10 9 7 6 5 4 4 3 3 3 3 3 3 3 2 2 2 2
9 9 9 10 10 11 11 11 12 13 14 13 12 12 11 10 9 9 9 9 9 9 10 9 9 9 10 11 12 12 12 11 9 8 6 5 4 3 2 2 3 3 3 3 3 3 3
9 9 9 9 10 10 10 11 12 12 13 12 13 13 12 10 9 8 9 9 9 10 10 10 10 10 11 12 12 12 11 11 11 10 9 7 6 4 3 3 3 3 3 3 3 3 3
8 8 9 9 9 9 10 10 11 11 12 12 13 14 13 10 9 9 9 9 10 10 10 10 11 12 12 12 10 8 8 8 8 9 10 9 8 7 5 4 3 4 3 3 3 3 3
8 8 8 9 9 9 9 9 10 10 11 11 13 14 13 11 10 10 10 10 10 10 11 11 12 13 13 11 9 6 5 6 6 7 8 9 8 7 6 5 4 4 4 4 3 3 3
10 9 9 9 9 9 9 9 9 10 10 11 11 12 12 11 11 11 11 10 11 11 11 11 12 12 12 10 8 7 7 7 6 6 7 7 7 6 6 5 5 6 6 5 5 5 5
12 12 11 10 10 9 9 9 9 9 9 9 10 10 10 10 11 11 12 12 12 12 12 12 12 12 11 10 9 8 8 8 8 7 7 7 7 6 6 6 6 7 7 7 6 6 6
15 14 14 13 11 10 10 9 9 8 8 9 9 9 9 9 10 11 12 12 12 12 12 12 12 11 11 10 9 9 9 9 8 7 7 7 7 7 6 6 6 8 8 8 8 7 7